Huvudsida
METAR-TAF:

METAR-TAF

Flygplatser :

Lycksele flygplats

Lycksele, Sverige

latitud: 64-32-51N, longitud: 018-43-03E, höjd: 211 m

Aktuellt väderrapport

Denna rapport gjordes för 10 minuter sedan, klockan 11:50 UTC
Vind 14 kt från syd/sydost
Temperatur 20°C
Fuktighet 56%
Tryck 1009 hPa
Sikt 10 km eller mer

METAR: ESNL 161150Z AUTO 16014KT 9999 FEW032/// BKN051/// BKN065/// 20/11 Q1009

Tid: 14:00 (12:00 UTC)


TAF: saknas

Aktuella väderrapporter och prognoser från 4000 flygplatser (METAR- och TAF-rapporter).

De tillgängliga stationerna syns som gula och röda prickar på kartan.

För musen över prickarna för att se namnen på stationerna.

Klicka sedan för att få väderrapporter och prognoser.

För att ändra kartan: Klicka på de gröna knapparna med ett svart kors på för att zooma in; den gröna knappen med ett streck på för att zooma ut; eller på de gröna pilarna för angränsande kartor.


METAR-TAF: